Probability
0 0 0 0 0 0 0 0 0 0 0 0 0 0 0 0 0 0 0 0 0 0 0 0 0 0 0 0 0 0 0 0 0 0 0 0 0 0 0 0 0 0 0 0
0 0 0 0 0 0 0 0 0 0 0 0 0 0 0 0 0 0 0 0 0 0 0 0 0 0 0 0 0 0 0 0 0 0 0 0 0 0 0 0 0 0 0 0
0 0 0 0 0 0 0 0 0 0 0 0 0 0 0 0 0 0 0 0 0 0 0 0 0 0 0 0 0 0 0 0 0 0 0 0 0 0 0 0 0 0 0 0
0 0 0 0 0 0 0 0 0 0 0 0 0 0 0 0 0 0 0 0 0 0 0 0 0 0 0 0 0 0 0 0 0 0 0 0 0 0 0 0 0 0 0 0
0 0 0 0 0 0 0 0 0 0 0 0 0 0 0 0 0 0 0 0 0 0 0 0 0 0 0 0 0 0 0 0 0 0 0 0 0 0 0 0 0 0 0 0
0 0 0 0 0 0 0 0 0 0 0 0 0 0 0 0 0 0 0 0 0 0 0 0 0 0 0 0 0 0 0 0 0 0 0 0 0 0 0 0 0 0 0 0
0 0 0 0 0 0 0 0 0 0 0 0 0 0 0 0 0 0 0 0 0 0 0 0 0 0 0 0 0 0 0 0 0 0 0 0 0 0 0 0 0 0 0 0
0 0 0 0 0 0 0 0 0 0 0 0 0 0 0 0 0 0 0 0 0 0 0 0 0 0 0 0 0 0 0 0 0 0 0 0 0 0 0 0 0 0 0 0
0 0 0 0 0 0 0 0 0 0 0 0 0 0 0 0 0 0 0 0 0 0 0 0 0 0 0 0 0 0 0 0 0 0 0 0 0 0 0 0 0 0 0 0
0 0 0 0 0 0 0 0 0 0 0 0 0 0 0 0 0 0 0 0 0 0 0 0 0 0 0 0 0 0 0 0 0 0 0 0 0 0 0 0 0 0 0 0
0 0 0 0 0 0 0 0 0 0 0 0 0 0 0 0 0 0 0 0 0 0 0 0 0 0 0 0 0 0 0 0 0 0 0 0 0 0 0 0 0 0 0 0
0 0 0 0 0 0 0 0 0 0 0 0 0 0 0 0 0 0 0 0 0 0 0 0 0 0 0 0 0 0 0 0 0 0 0 0 0 0 0 0 0 0 0 0
0 0 0 0 0 0 0 0 0 0 0 0 0 0 0 0 0 0 0 0 0 0 0 0 0 0 0 0 0 0 0 0 0 0 0 0 0 0 0 0 0 0 0 0
0 0 0 0 0 0 0 0 0 0 0 0 0 0 0 0 0 0 0 0 0 0 0 0 0 0 0 0 0 0 0 0 0 0 0 0 0 0 0 0 0 0 0 0
0 0 0 0 0 0 0 0 0 0 0 0 0 0 0 0 0 0 0 0 0 0 0 0 0 0 0 0 0 0 0 0 0 0 0 0 0 0 0 0 0 0 0 0
0 0 0 0 0 0 0 0 0 0 0 0 0 0 0 0 0 0 0 0 0 0 0 0 0 0 0 0 0 0 0 0 0 0 0 0 0 0 0 0 0 0 0 0
0 0 0 0 0 0 0 0 0 0 0 0 0 0 0 0 0 0 0 0 0 0 0 0 0 0 0 0 0 0 0 0 0 0 0 0 0 0 0 0 0 0 0 0
0 0 0 0 0 0 0 0 0 0 0 0 0 0 0 0 0 0 0 0 0 0 0 0 0 0 0 0 0 0 0 0 0 0 0 0 0 0 0 0 0 0 0 0
0 0 0 0 0 0 0 0 0 0 0 0 0 0 0 0 0 0 0 0 0 0 0 0 0 0 0 0 0 0 0 0 0 0 0 0 0 0 0 0 0 0 0 0
0 0 0 0 0 0 0 0 0 0 0 0 0 0 0 0 0 0 0 0 0 0 0 0 0 0 0 0 0 0 0 0 0 0 0 0 0 0 0 0 0 0 0 0
0 0 0 0 0 0 0 0 0 0 0 0 0 0 0 0 0 0 0 0 0 0 0 0 0 0 0 0 0 0 0 0 0 0 0 0 0 0 0 0 0 0 0 0
0 0 0 0 0 0 0 0 0 0 0 0 0 0 0 0 0 0 0 0 0 0 0 0 0 0 0 0 0 0 0 0 0 0 0 0 0 0 0 0 0 0 0 0
0 0 0 0 0 0 0 0 0 0 0 0 0 0 0 0 0 0 0 0 0 0 0 0 0 0 0 0 0 0 0 0 0 0 0 0 0 0 0 0 0 0 0 0
0 0 0 0 0 0 0 0 0 0 0 0 0 0 0 0 0 0 0 0 0 0 0 0 0 0 0 0 0 0 0 0 0 0 0 0 0 0 0 0 0 0 0 0
0 0 0 0 0 0 0 0 0 0 0 0 0 0 0 0 0 0 0 0 0 0 0 0 0 0 0 0 0 0 0 0 0 0 0 0 0 0 0 0 0 0 0 0
0 0 0 0 0 0 0 0 0 0 0 0 0 0 0 0 0 0 0 0 0 0 0 0 0 0 0 0 0 0 0 0 0 0 0 0 0 0 0 0 0 0 0 0
Height
5653 5654 5654 5655 5654 5655 5655 5656 5657 5659 5659 5659 5661 5663 5666 5667 5668 5669 5671 5673 5676 5678 5681 5684 5687 5689 5692 5695 5698 5701 5704 5706 5708 5710 5711 5713 5715 5717 5718 5720 5722 5723 5724 5726
5647 5647 5648 5647 5646 5647 5647 5647 5649 5650 5650 5651 5652 5654 5656 5657 5658 5660 5662 5664 5666 5668 5670 5673 5676 5679 5682 5685 5688 5690 5693 5696 5698 5700 5701 5703 5705 5707 5708 5710 5711 5713 5714 5716
5640 5641 5640 5639 5639 5640 5640 5640 5641 5641 5642 5642 5643 5645 5647 5649 5649 5650 5652 5654 5656 5658 5660 5662 5665 5668 5670 5674 5676 5679 5682 5685 5687 5689 5690 5692 5694 5695 5697 5699 5701 5702 5704 5705
5632 5633 5632 5632 5632 5632 5632 5633 5633 5633 5633 5634 5634 5634 5639 5639 5639 5641 5643 5644 5646 5648 5649 5652 5654 5657 5660 5662 5665 5668 5670 5673 5675 5677 5679 5681 5683 5685 5687 5688 5690 5691 5692 5694
5626 5625 5625 5625 5625 5625 5625 5625 5625 5625 5624 5625 5625 5624 5628 5629 5630 5632 5634 5634 5636 5637 5639 5641 5644 5646 5648 5651 5653 5656 5658 5661 5663 5665 5668 5669 5671 5673 5675 5676 5678 5679 5681 5682
5619 5618 5617 5618 5618 5617 5617 5618 5617 5616 5616 5616 5618 5616 5617 5620 5622 5623 5624 5624 5625 5627 5628 5630 5632 5634 5636 5639 5641 5644 5646 5648 5651 5653 5655 5657 5659 5660 5662 5664 5665 5667 5668 5670
5612 5611 5611 5610 5610 5610 5609 5610 5609 5608 5607 5608 5610 5608 5609 5611 5612 5613 5614 5614 5615 5616 5618 5619 5621 5622 5624 5626 5629 5631 5633 5635 5638 5640 5642 5644 5646 5647 5650 5652 5653 5655 5656 5658
5605 5605 5604 5603 5602 5602 5601 5602 5602 5601 5600 5601 5601 5599 5603 5602 5602 5602 5603 5603 5603 5605 5606 5608 5609 5610 5612 5614 5616 5618 5620 5623 5625 5627 5630 5632 5633 5635 5637 5639 5641 5642 5644 5646
5598 5598 5598 5596 5595 5595 5594 5594 5595 5594 5592 5592 5592 5593 5594 5594 5592 5592 5592 5592 5593 5594 5595 5596 5597 5598 5599 5601 5603 5605 5607 5609 5612 5614 5616 5619 5620 5622 5624 5626 5628 5630 5632 5634
5591 5590 5591 5590 5589 5588 5588 5587 5587 5586 5584 5583 5584 5585 5585 5584 5583 5582 5582 5582 5582 5583 5583 5584 5585 5586 5587 5588 5590 5592 5594 5596 5598 5601 5603 5605 5607 5609 5611 5613 5615 5617 5619 5621
5584 5583 5583 5583 5582 5582 5582 5581 5580 5579 5578 5577 5575 5579 5577 5574 5573 5573 5572 5571 5571 5571 5571 5572 5573 5573 5574 5575 5577 5579 5581 5583 5585 5587 5589 5591 5593 5596 5598 5600 5602 5604 5606 5608
5578 5577 5576 5576 5576 5575 5575 5574 5573 5572 5571 5569 5567 5571 5568 5566 5564 5563 5562 5560 5560 5559 5560 5560 5560 5561 5562 5563 5565 5567 5569 5570 5573 5575 5576 5578 5580 5582 5584 5586 5589 5591 5593 5595
5572 5571 5570 5569 5571 5570 5568 5568 5566 5565 5564 5561 5560 5563 5560 5558 5556 5554 5552 5551 5549 5549 5549 5549 5549 5549 5550 5552 5553 5555 5557 5559 5560 5562 5564 5566 5568 5570 5571 5573 5576 5578 5580 5582
5565 5564 5564 5564 5562 5561 5561 5560 5559 5557 5555 5554 5553 5553 5553 5549 5546 5545 5543 5541 5540 5539 5538 5538 5538 5538 5539 5540 5542 5543 5545 5547 5548 5550 5552 5553 5555 5557 5559 5560 5562 5565 5567 5569
5559 5558 5557 5556 5556 5554 5553 5553 5551 5549 5548 5546 5546 5544 5543 5540 5538 5535 5533 5532 5531 5530 5529 5528 5528 5528 5528 5529 5531 5532 5533 5535 5536 5538 5539 5541 5543 5544 5546 5547 5549 5552 5554 5556
5552 5550 5549 5549 5548 5546 5545 5545 5543 5542 5540 5538 5536 5536 5535 5531 5529 5526 5524 5522 5521 5520 5519 5518 5518 5518 5518 5519 5520 5521 5522 5523 5524 5526 5527 5529 5530 5531 5533 5535 5536 5538 5540 5542
5545 5543 5541 5540 5540 5537 5538 5538 5535 5533 5532 5530 5527 5528 5525 5522 5520 5518 5515 5514 5512 5511 5510 5509 5508 5508 5508 5508 5509 5510 5510 5511 5512 5514 5515 5516 5518 5519 5521 5522 5524 5526 5528 5530
5537 5535 5533 5531 5531 5528 5533 5530 5528 5525 5524 5522 5519 5517 5515 5513 5511 5509 5506 5504 5503 5501 5500 5499 5499 5498 5498 5498 5498 5498 5499 5500 5501 5502 5503 5505 5506 5507 5508 5510 5512 5513 5515 5517
5530 5527 5525 5523 5520 5519 5523 5521 5518 5516 5515 5513 5510 5508 5506 5504 5502 5500 5497 5495 5493 5492 5491 5490 5489 5488 5487 5487 5487 5487 5488 5488 5489 5490 5492 5493 5494 5495 5496 5498 5499 5501 5503 5504
5522 5519 5517 5514 5511 5510 5514 5512 5508 5507 5506 5505 5502 5499 5497 5495 5493 5493 5489 5486 5484 5482 5481 5480 5479 5478 5477 5476 5476 5476 5476 5477 5478 5479 5480 5481 5482 5483 5484 5486 5487 5489 5490 5492
5514 5511 5509 5506 5502 5501 5504 5501 5499 5498 5498 5495 5492 5490 5488 5485 5484 5482 5479 5477 5474 5473 5471 5470 5469 5468 5467 5466 5465 5465 5465 5466 5467 5468 5469 5469 5470 5471 5473 5474 5475 5477 5478 5479
5505 5502 5500 5497 5494 5496 5494 5492 5490 5488 5486 5484 5482 5480 5478 5476 5474 5472 5469 5467 5465 5463 5461 5460 5459 5458 5456 5455 5454 5454 5454 5454 5455 5456 5457 5458 5459 5459 5460 5462 5463 5464 5466 5467
5496 5495 5491 5490 5489 5486 5484 5482 5480 5478 5476 5474 5472 5470 5468 5466 5464 5462 5460 5458 5456 5454 5452 5450 5449 5448 5446 5445 5444 5443 5443 5443 5444 5445 5445 5446 5447 5447 5448 5449 5451 5452 5453 5455
5487 5485 5482 5480 5479 5477 5474 5472 5470 5468 5466 5464 5462 5460 5458 5457 5455 5453 5451 5449 5447 5444 5442 5440 5439 5438 5436 5435 5434 5433 5433 5432 5433 5433 5434 5434 5435 5435 5436 5437 5438 5440 5441 5442
5478 5476 5473 5470 5470 5467 5466 5463 5461 5459 5456 5454 5452 5450 5449 5447 5445 5443 5441 5439 5437 5435 5433 5431 5429 5428 5427 5425 5424 5423 5423 5422 5422 5422 5422 5422 5423 5423 5424 5425 5426 5427 5429 5430
5470 5467 5464 5462 5460 5458 5456 5454 5451 5449 5447 5445 5443 5441 5439 5437 5436 5434 5431 5429 5427 5425 5423 5421 5420 5418 5417 5416 5415 5413 5412 5412 5411 5411 5411 5411 5411 5411 5412 5413 5414 5414 5416 5417
Wind_Speed
29 30 29 29 29 29 30 31 32 32 31 33 33 34 34 35 36 38 38 38 39 40 42 43 43 43 43 43 43 43 43 42 42 42 42 42 42 42 42 42 41 41 41 41
27 28 28 29 29 30 30 31 33 33 33 34 34 34 34 35 36 37 37 38 39 40 41 43 43 43 43 44 44 44 44 44 43 43 43 43 42 43 43 43 43 42 41 41
27 27 27 28 29 30 30 31 32 34 34 35 37 36 35 35 36 36 36 37 39 40 41 42 43 44 44 45 45 45 45 44 45 44 44 44 44 44 44 43 43 43 43 43
25 25 26 27 28 29 30 30 32 33 34 35 37 38 35 35 35 36 37 37 39 39 40 41 42 43 44 45 46 46 46 46 46 46 46 46 46 46 46 45 45 45 45 44
24 24 25 27 27 28 28 29 30 31 33 35 36 38 36 35 36 36 37 38 39 40 41 41 41 42 44 45 46 46 47 47 48 47 47 47 47 47 47 47 46 46 46 46
24 24 25 26 26 27 27 27 29 31 32 34 33 35 36 35 36 36 36 38 39 39 40 41 42 42 44 45 46 46 47 47 48 48 48 47 48 48 48 48 48 48 47 46
23 23 25 26 27 28 28 28 29 31 32 33 32 34 35 34 34 36 37 38 39 39 40 41 42 43 44 45 46 46 47 47 48 48 48 49 49 49 49 49 49 48 48 47
24 24 24 25 27 28 28 28 29 30 32 32 32 33 32 33 34 35 37 38 39 39 40 41 42 43 44 45 47 47 47 48 48 49 49 49 48 50 49 49 49 49 49 48
25 25 24 24 25 26 27 27 27 29 31 32 32 33 33 33 35 36 37 37 38 39 40 41 42 43 44 45 46 47 47 48 48 49 50 50 50 50 50 50 50 50 50 49
26 26 25 24 25 25 26 26 26 28 31 33 33 32 33 35 36 37 38 37 37 39 40 42 42 43 43 45 45 46 46 47 48 48 49 50 50 50 50 50 50 50 49 49
25 26 25 24 24 24 24 25 27 29 31 32 33 32 33 34 35 36 37 38 39 39 40 41 42 42 43 44 45 45 46 46 47 47 48 48 49 50 50 50 50 50 49 50
25 26 25 24 24 24 25 26 27 29 30 31 33 32 32 34 35 35 36 37 37 39 40 41 41 42 42 43 44 45 45 45 45 46 46 46 47 47 48 48 48 49 49 50
26 27 26 26 26 26 26 26 27 29 31 31 33 33 32 34 34 34 35 35 35 36 38 40 41 40 41 42 42 43 44 45 45 45 45 45 46 46 47 49 48 49 49 48
27 28 27 27 27 28 28 27 28 30 32 33 33 33 33 35 35 35 35 36 36 36 36 38 38 39 39 40 41 42 42 43 44 44 44 44 45 46 47 48 49 49 49 50
28 28 28 28 28 28 28 28 29 30 31 34 33 33 33 34 35 35 35 36 36 36 36 37 37 37 38 38 39 40 41 42 42 43 43 43 44 45 46 47 48 49 50 50
29 30 30 29 29 29 29 29 30 31 32 33 33 33 32 33 34 34 33 34 34 35 35 36 37 37 37 38 39 39 40 41 41 42 42 43 44 44 45 46 46 47 48 49
30 31 31 31 30 31 30 29 30 31 31 33 33 34 33 33 34 34 34 34 34 35 34 35 35 36 36 37 38 39 40 40 40 41 42 42 43 44 45 45 46 46 46 47
30 31 32 33 33 33 31 31 31 32 32 33 34 34 34 34 34 34 35 35 35 35 35 34 35 35 35 36 36 37 38 39 40 40 40 41 42 43 43 44 45 45 45 46
31 31 32 33 34 34 32 32 32 33 32 32 33 34 34 34 34 34 34 35 36 36 35 35 35 35 35 35 36 37 38 38 38 39 40 40 41 42 43 43 43 44 45 45
31 31 32 32 34 35 33 32 32 33 34 33 34 34 34 34 34 33 34 34 34 35 35 35 34 35 35 36 37 37 37 38 38 39 39 39 41 42 43 43 43 43 43 43
31 32 32 32 34 34 33 33 34 35 35 35 35 34 34 34 33 33 33 32 32 33 34 34 34 35 35 36 37 37 38 38 38 39 39 39 39 40 41 42 43 43 43 43
32 32 32 33 34 34 34 34 34 34 35 35 35 35 34 34 33 33 33 32 32 32 33 34 34 35 35 35 35 36 37 37 37 38 38 38 39 40 40 42 42 42 42 42
33 33 33 34 34 34 33 33 34 34 34 34 34 34 34 34 33 33 33 32 31 31 33 34 34 34 34 34 34 35 36 36 37 37 38 39 39 40 40 41 41 41 41 42
32 32 33 34 33 33 34 34 35 35 35 35 34 34 33 33 33 33 32 32 32 32 33 33 33 33 33 34 33 34 34 35 36 37 38 39 39 40 41 41 41 41 42 41
32 33 33 34 33 34 34 35 35 35 35 34 34 33 33 33 33 32 33 33 32 32 32 32 32 33 33 33 33 33 33 34 35 36 37 38 39 40 40 41 42 42 42 41
32 33 33 34 34 34 34 35 35 34 34 33 33 33 33 33 33 32 33 33 33 32 32 31 31 32 32 32 33 33 34 34 34 35 35 36 37 38 38 39 40 40 41 41
Wind_Direction
265 264 265 266 265 264 264 264 263 264 263 262 261 260 259 259 258 257 257 256 255 254 252 250 251 251 251 251 251 251 253 254 255 255 255 254 254 254 256 257 257 257 258 258
268 267 267 266 264 262 263 264 263 263 264 264 263 261 261 261 261 260 259 258 257 256 254 252 250 251 252 252 252 252 253 254 254 255 255 255 256 256 257 258 257 257 258 259
271 271 269 266 265 265 265 265 265 265 265 265 265 263 263 263 262 261 260 259 257 256 254 254 252 251 251 252 252 252 252 253 254 254 254 254 255 255 256 256 257 258 258 259
274 272 270 267 267 267 267 267 267 267 266 266 268 268 264 264 262 261 260 260 259 257 256 255 254 252 252 253 253 253 252 252 253 254 255 255 256 256 256 258 258 258 258 259
277 275 271 268 268 270 269 269 268 268 269 269 270 272 268 265 263 261 261 261 260 258 257 257 257 255 254 254 254 254 253 253 253 254 254 255 256 256 256 257 257 258 258 258
279 276 272 269 269 271 270 269 269 270 272 272 273 274 273 268 266 264 262 262 262 260 258 259 258 257 255 255 255 255 253 253 253 254 254 255 256 256 256 256 257 257 257 257
280 278 275 272 270 270 271 272 272 273 273 276 276 275 275 273 270 266 264 264 264 262 261 261 261 260 257 256 256 255 254 254 253 254 254 255 255 256 257 257 257 257 257 257
282 280 278 275 272 272 272 272 273 275 277 278 277 275 276 275 273 270 268 267 266 264 262 262 262 262 260 258 258 257 256 255 254 254 254 255 256 256 256 257 256 256 256 257
284 283 280 278 274 271 272 272 273 275 277 279 279 278 277 275 275 274 271 269 268 266 264 264 264 263 262 260 259 257 256 255 255 255 255 255 255 256 257 257 256 255 256 256
283 283 281 279 276 273 273 274 274 275 277 280 281 280 280 278 277 277 275 272 269 267 266 266 265 264 263 261 259 259 257 256 255 255 256 256 256 256 256 257 256 256 256 256
283 283 280 279 277 276 275 274 275 278 278 279 282 282 282 281 280 279 278 276 273 270 269 268 267 265 263 261 259 258 257 257 256 256 256 256 256 256 256 255 255 255 256 256
282 282 278 279 279 278 277 278 277 277 278 278 280 282 282 282 281 280 278 276 275 272 270 270 268 266 263 261 260 259 258 257 257 256 256 256 256 256 255 255 254 254 255 256
283 281 280 279 279 279 278 280 279 278 278 279 279 281 283 284 283 281 279 278 277 273 271 270 269 266 264 262 261 260 259 258 257 257 257 257 256 256 256 254 253 254 254 254
285 282 280 280 282 282 280 280 280 279 278 279 281 283 282 284 283 282 280 278 277 275 273 271 269 266 264 263 262 260 259 258 258 257 257 257 256 256 256 255 254 254 254 254
286 285 282 280 280 280 280 281 281 281 282 282 284 284 285 284 285 283 281 279 278 276 275 272 269 267 265 263 262 260 259 258 258 257 257 257 257 257 257 256 255 255 256 255
287 285 283 281 280 278 279 281 283 282 284 286 285 284 286 285 285 284 282 280 279 277 275 273 269 267 265 263 262 261 260 259 258 258 257 257 257 257 256 256 256 256 255 255
287 285 284 282 280 280 280 284 283 284 286 286 287 287 286 285 285 284 282 280 279 277 276 273 270 269 268 266 264 262 261 261 260 260 258 258 257 257 256 256 257 256 256 256
287 287 285 284 282 281 285 285 284 284 285 286 286 287 286 286 286 286 283 281 278 278 276 273 270 269 268 267 265 263 262 261 261 261 260 259 258 257 256 256 256 256 257 257
288 287 287 285 283 283 285 287 286 286 286 287 286 286 287 287 286 286 285 282 280 277 276 274 272 271 270 269 267 265 263 262 261 261 261 260 259 259 257 258 258 258 258 259
289 288 287 286 285 285 287 286 285 285 286 287 287 287 287 286 285 285 286 284 281 278 277 275 274 272 271 270 268 267 265 263 262 261 261 260 260 260 259 259 259 259 260 260
289 288 287 286 284 285 287 286 286 285 286 286 285 286 286 286 286 286 285 284 280 279 278 277 275 273 273 272 269 267 266 263 262 262 262 261 261 260 260 259 260 260 261 261
290 289 287 286 285 287 287 286 286 287 287 286 284 284 285 286 286 286 286 285 283 280 279 278 277 275 274 273 272 269 266 264 263 262 262 262 262 261 261 259 259 261 262 263
288 290 289 287 287 287 286 286 286 286 286 286 284 284 284 285 285 286 287 286 285 283 281 279 278 276 274 274 273 271 268 266 265 264 263 263 263 263 262 261 260 260 261 263
288 288 287 286 286 285 285 286 286 287 287 286 285 284 284 284 285 286 285 285 286 286 284 281 278 277 275 275 275 273 270 268 267 266 265 265 264 263 262 260 260 260 260 261
287 288 287 286 286 285 285 286 286 286 286 285 284 284 283 283 285 285 285 284 285 285 284 282 279 277 275 274 275 274 273 271 269 268 267 267 266 265 263 262 260 260 261 261
288 288 287 286 286 285 286 286 286 285 284 283 283 283 283 283 284 285 285 285 285 284 283 282 279 278 276 276 276 275 274 273 271 268 268 268 267 265 263 262 261 261 262 262